QTR62J OTHH-VGHS

Flight info

Callsign QTR62J
Flight time 4h 42m
Altitude 28000
Route DATRI L564 BAT/N0479F290 L564 KUTNA M440 MIDGU/N0489F350 M440 TULBU N881 RASKI L639 BPL A791 JJS G450 CEA A462 DAC
Aircraft B77W/H-SDE1E2E3FGHIJ2J3J4J5M1RWXY/LB1D1

Departure

Time 2026-05-07 17:38
Airport Hamad International Airport (OTHH)

Arrival

Time 2026-05-07 22:20
Airport Hazrat Shahjalal International Airport (VGHS)
Time Latitude Longitude Altitude Speed Heading
2026-05-07 16:38 25.26526 51.61067 35 ft 0 kts 68°
2026-05-07 17:24 25.26520 51.61050 32 ft 4 kts 68°
2026-05-07 17:24 25.26510 51.61023 32 ft 2 kts 68°
2026-05-07 17:25 25.26501 51.61001 32 ft 4 kts 56°
2026-05-07 17:25 25.26484 51.60982 31 ft 4 kts
2026-05-07 17:25 25.26462 51.60987 32 ft 4 kts 338°
2026-05-07 17:25 25.26440 51.60997 32 ft 1 kts 338°
2026-05-07 17:29 25.26446 51.60992 32 ft 1 kts 320°
2026-05-07 17:29 25.26448 51.60982 33 ft 1 kts 280°
2026-05-07 17:30 25.26442 51.60969 32 ft 3 kts 242°
2026-05-07 17:30 25.26436 51.60934 34 ft 6 kts 278°
2026-05-07 17:30 25.26467 51.60887 35 ft 9 kts 323°
2026-05-07 17:30 25.26517 51.60825 35 ft 13 kts 296°
2026-05-07 17:31 25.26552 51.60735 35 ft 13 kts 293°
2026-05-07 17:31 25.26555 51.60726 35 ft 0 kts 293°
2026-05-07 17:33 25.26567 51.60696 35 ft 7 kts 293°
2026-05-07 17:33 25.26587 51.60631 35 ft 10 kts 277°
2026-05-07 17:33 25.26572 51.60557 35 ft 10 kts 250°
2026-05-07 17:33 25.26547 51.60486 34 ft 10 kts 248°
2026-05-07 17:34 25.26511 51.60434 34 ft 6 kts 187°
2026-05-07 17:34 25.26463 51.60446 34 ft 10 kts 159°
2026-05-07 17:34 25.26370 51.60486 35 ft 19 kts 158°
2026-05-07 17:34 25.26239 51.60544 35 ft 20 kts 158°
2026-05-07 17:35 25.26107 51.60602 35 ft 20 kts 158°
2026-05-07 17:35 25.25974 51.60661 34 ft 20 kts 158°
2026-05-07 17:35 25.25862 51.60710 34 ft 12 kts 158°
2026-05-07 17:35 25.25792 51.60740 34 ft 11 kts 159°
2026-05-07 17:36 25.25734 51.60704 34 ft 11 kts 244°
2026-05-07 17:36 25.25706 51.60627 33 ft 11 kts 248°
2026-05-07 17:36 25.25676 51.60548 31 ft 12 kts 247°
2026-05-07 17:36 25.25667 51.60491 30 ft 6 kts 300°
2026-05-07 17:37 25.25714 51.60467 31 ft 13 kts 337°
2026-05-07 17:37 25.25927 51.60371 33 ft 64 kts 338°
2026-05-07 17:37 25.26551 51.60096 30 ft 128 kts 338°
2026-05-07 17:37 25.27556 51.59658 48 ft 176 kts 338°
2026-05-07 17:38 25.28706 51.59132 550 ft 180 kts 338°
2026-05-07 17:38 25.29902 51.58585 981 ft 189 kts 337°
2026-05-07 17:38 25.30703 51.58211 1377 ft 189 kts 338°
2026-05-07 17:38 25.32419 51.57468 1742 ft 211 kts 339°
2026-05-07 17:39 25.33854 51.56844 1972 ft 230 kts 338°
2026-05-07 17:39 25.34867 51.56403 2199 ft 240 kts 338°
2026-05-07 17:39 25.36450 51.55738 2760 ft 239 kts 346°
2026-05-07 17:39 25.38571 51.55885 3720 ft 231 kts 25°
2026-05-07 17:40 25.39499 51.56532 3972 ft 241 kts 43°
2026-05-07 17:40 25.40537 51.58102 4070 ft 264 kts 61°
2026-05-07 17:40 25.41377 51.59904 4638 ft 269 kts 62°
2026-05-07 17:40 25.42228 51.61768 5273 ft 271 kts 65°
2026-05-07 17:41 25.42693 51.63790 5816 ft 275 kts 90°
2026-05-07 17:41 25.42253 51.65819 6550 ft 274 kts 117°
2026-05-07 17:41 25.41022 51.67444 7108 ft 282 kts 143°
2026-05-07 17:41 25.39248 51.68412 7679 ft 285 kts 159°
2026-05-07 17:42 25.37353 51.69078 8375 ft 285 kts 161°
2026-05-07 17:42 25.35464 51.69679 9044 ft 286 kts 162°
2026-05-07 17:42 25.33533 51.70295 9667 ft 290 kts 162°
2026-05-07 17:42 25.31578 51.70923 10242 ft 293 kts 162°
2026-05-07 17:43 25.29556 51.71311 10640 ft 303 kts 182°
2026-05-07 17:43 25.27436 51.70861 10812 ft 325 kts 193°
2026-05-07 17:43 25.25153 51.70183 10969 ft 347 kts 193°
2026-05-07 17:43 25.22771 51.69502 11129 ft 368 kts 193°
2026-05-07 17:44 25.20229 51.68811 11461 ft 383 kts 192°
2026-05-07 17:44 25.17588 51.68125 11953 ft 391 kts 192°
2026-05-07 17:44 25.14914 51.67452 12095 ft 396 kts 191°
2026-05-07 17:44 25.12205 51.66787 12795 ft 400 kts 192°
2026-05-07 17:45 25.09514 51.66133 13606 ft 402 kts 192°
2026-05-07 17:45 25.06763 51.65468 14250 ft 406 kts 192°
2026-05-07 17:45 25.04009 51.64805 14990 ft 403 kts 191°
2026-05-07 17:45 25.01272 51.64146 15669 ft 402 kts 191°
2026-05-07 17:46 24.98537 51.63488 16233 ft 404 kts 192°
2026-05-07 17:46 24.95773 51.62824 16717 ft 407 kts 192°
2026-05-07 17:46 24.93028 51.62164 17221 ft 410 kts 191°
2026-05-07 17:46 24.90231 51.61492 17762 ft 411 kts 191°
2026-05-07 17:47 24.87424 51.60818 17814 ft 413 kts 191°
2026-05-07 17:47 24.84612 51.60142 17831 ft 411 kts 191°
2026-05-07 17:47 24.81853 51.59480 17832 ft 410 kts 191°
2026-05-07 17:47 24.79063 51.58810 17838 ft 409 kts 191°
2026-05-07 17:48 24.76273 51.58140 17830 ft 409 kts 191°
2026-05-07 17:48 24.73479 51.57471 17838 ft 409 kts 191°
2026-05-07 17:48 24.70698 51.56805 17823 ft 409 kts 191°
2026-05-07 17:48 24.67914 51.56142 17826 ft 409 kts 191°
2026-05-07 17:49 24.65126 51.55481 17835 ft 410 kts 191°
2026-05-07 17:49 24.62330 51.54820 17819 ft 410 kts 191°
2026-05-07 17:49 24.59567 51.54167 17837 ft 411 kts 191°
2026-05-07 17:49 24.56763 51.53504 17819 ft 411 kts 191°
2026-05-07 17:50 24.53957 51.52840 17823 ft 412 kts 191°
2026-05-07 17:50 24.51148 51.52175 17822 ft 412 kts 191°
2026-05-07 17:50 24.48345 51.51512 17830 ft 412 kts 191°
2026-05-07 17:50 24.45566 51.50855 17821 ft 412 kts 191°
2026-05-07 17:51 24.42757 51.50191 17819 ft 412 kts 191°
2026-05-07 17:51 24.39948 51.49528 17814 ft 412 kts 191°
2026-05-07 17:51 24.37167 51.48871 17817 ft 413 kts 191°
2026-05-07 17:51 24.34356 51.48208 17834 ft 414 kts 191°
2026-05-07 17:52 24.31533 51.47542 17821 ft 414 kts 191°
2026-05-07 17:52 24.28705 51.46875 17832 ft 415 kts 191°
2026-05-07 17:52 24.25879 51.46209 17820 ft 416 kts 191°
2026-05-07 17:52 24.23032 51.45562 17817 ft 416 kts 188°
2026-05-07 17:53 24.20189 51.45181 17831 ft 415 kts 182°
2026-05-07 17:53 24.17313 51.45144 17837 ft 414 kts 178°
2026-05-07 17:53 24.14415 51.45178 17810 ft 415 kts 178°
2026-05-07 17:53 24.11516 51.45205 17808 ft 415 kts 178°
2026-05-07 17:54 24.08628 51.45225 17812 ft 415 kts 179°
2026-05-07 17:54 24.05767 51.45239 17813 ft 415 kts 179°
2026-05-07 17:54 24.02874 51.45250 17815 ft 415 kts 179°
2026-05-07 17:54 23.99988 51.45260 17831 ft 415 kts 179°
2026-05-07 17:55 23.97090 51.45268 17810 ft 415 kts 179°
2026-05-07 17:55 23.94205 51.45276 17812 ft 414 kts 179°
2026-05-07 17:55 23.91329 51.45283 17814 ft 414 kts 179°
2026-05-07 17:55 23.88474 51.45291 17821 ft 414 kts 179°
2026-05-07 17:56 23.85596 51.45298 17815 ft 413 kts 179°
2026-05-07 17:56 23.82723 51.45306 17811 ft 412 kts 179°
2026-05-07 17:56 23.79850 51.45314 17814 ft 412 kts 179°
2026-05-07 17:56 23.76988 51.45321 17812 ft 411 kts 179°
2026-05-07 17:57 23.74119 51.45329 17819 ft 410 kts 179°
2026-05-07 17:57 23.72226 51.45334 17818 ft 410 kts 179°
2026-05-07 17:57 23.68439 51.45345 17811 ft 410 kts 179°
2026-05-07 17:57 23.65582 51.45352 17820 ft 410 kts 179°
2026-05-07 17:58 23.62712 51.45360 17813 ft 410 kts 179°
2026-05-07 17:58 23.59860 51.45368 17819 ft 410 kts 179°
2026-05-07 17:58 23.57037 51.45376 17807 ft 410 kts 179°
2026-05-07 17:58 23.54168 51.45383 17807 ft 411 kts 179°
2026-05-07 17:59 23.51301 51.45391 17808 ft 411 kts 179°
2026-05-07 17:59 23.48431 51.45399 17805 ft 412 kts 179°
2026-05-07 17:59 23.45596 51.45421 17805 ft 412 kts 178°
2026-05-07 17:59 23.42728 51.45467 17813 ft 412 kts 178°
2026-05-07 18:00 23.39852 51.45521 17807 ft 413 kts 178°
2026-05-07 18:00 23.36974 51.45572 17804 ft 413 kts 178°
2026-05-07 18:00 23.34100 51.45621 17806 ft 413 kts 178°
2026-05-07 18:00 23.31219 51.45667 17807 ft 413 kts 178°
2026-05-07 18:01 23.28346 51.45724 17804 ft 409 kts 175°
2026-05-07 18:01 23.25590 51.46355 17806 ft 406 kts 156°
2026-05-07 18:01 23.23214 51.47943 17807 ft 407 kts 139°
2026-05-07 18:01 23.21257 51.50177 17807 ft 410 kts 126°
2026-05-07 18:02 23.18770 51.55795 18492 ft 418 kts 113°
2026-05-07 18:02 23.17675 51.58732 18910 ft 421 kts 113°
2026-05-07 18:02 23.16571 51.61687 19311 ft 423 kts 113°
2026-05-07 18:03 23.15445 51.64666 19687 ft 427 kts 114°
2026-05-07 18:03 23.14296 51.67664 20049 ft 431 kts 114°
2026-05-07 18:03 23.13129 51.70683 20412 ft 434 kts 114°
2026-05-07 18:03 23.11959 51.73692 20759 ft 438 kts 114°
2026-05-07 18:04 23.10764 51.76758 21115 ft 441 kts 114°
2026-05-07 18:04 23.09562 51.79836 21488 ft 444 kts 114°
2026-05-07 18:04 23.08352 51.82934 21856 ft 447 kts 114°
2026-05-07 18:04 23.07129 51.86064 22232 ft 449 kts 114°
2026-05-07 18:05 23.05901 51.89207 22576 ft 453 kts 114°
2026-05-07 18:05 23.04678 51.92333 22863 ft 457 kts 114°
2026-05-07 18:05 23.03432 51.95520 23161 ft 460 kts 114°
2026-05-07 18:05 23.02170 51.98743 23469 ft 463 kts 114°
2026-05-07 18:06 23.00903 52.01975 23758 ft 465 kts 114°
2026-05-07 18:06 22.99631 52.05217 24072 ft 467 kts 114°
2026-05-07 18:06 22.98374 52.08424 24394 ft 467 kts 114°
2026-05-07 18:06 22.97098 52.11676 24672 ft 469 kts 115°
2026-05-07 18:07 22.95812 52.14953 24914 ft 472 kts 115°
2026-05-07 18:07 22.94517 52.18250 25152 ft 475 kts 115°
2026-05-07 18:07 22.93217 52.21558 25402 ft 478 kts 115°
2026-05-07 18:07 22.91904 52.24898 25663 ft 480 kts 115°
2026-05-07 18:08 22.90604 52.28200 25916 ft 482 kts 115°
2026-05-07 18:08 22.89280 52.31563 26166 ft 485 kts 115°
2026-05-07 18:08 22.87951 52.34935 26380 ft 488 kts 115°
2026-05-07 18:08 22.86614 52.38328 26607 ft 490 kts 115°
2026-05-07 18:09 22.85264 52.41749 26867 ft 492 kts 115°
2026-05-07 18:09 22.83935 52.45132 27122 ft 494 kts 114°
2026-05-07 18:09 22.82793 52.48660 27349 ft 498 kts 108°
2026-05-07 18:09 22.81948 52.52313 27565 ft 502 kts 102°
2026-05-07 18:10 22.81434 52.56073 27775 ft 505 kts 98°
2026-05-07 18:10 22.81007 52.59859 27984 ft 507 kts 98°
2026-05-07 18:10 22.80583 52.63662 28201 ft 509 kts 98°
2026-05-07 18:10 22.80149 52.67487 28410 ft 511 kts 98°
2026-05-07 18:11 22.79703 52.71308 28615 ft 513 kts 98°
2026-05-07 18:11 22.78775 52.79024 28772 ft 517 kts 99°
2026-05-07 18:12 22.77829 52.86758 28795 ft 516 kts 99°
2026-05-07 18:12 22.76888 52.94417 28803 ft 515 kts 99°
2026-05-07 18:13 22.75938 53.02140 28806 ft 515 kts 98°
2026-05-07 18:13 22.74994 53.09794 28807 ft 515 kts 98°
2026-05-07 18:14 22.74035 53.17528 28803 ft 516 kts 99°
2026-05-07 18:14 22.73082 53.25190 28804 ft 516 kts 99°
2026-05-07 18:15 22.72116 53.32920 28805 ft 516 kts 99°
2026-05-07 18:15 22.71151 53.40619 28806 ft 516 kts 99°
2026-05-07 18:16 22.70179 53.48344 28806 ft 516 kts 99°
2026-05-07 18:16 22.69210 53.56006 28802 ft 516 kts 98°
2026-05-07 18:17 22.68230 53.63718 28807 ft 515 kts 98°
2026-05-07 18:17 22.67250 53.71397 28809 ft 514 kts 99°
2026-05-07 18:18 22.66268 53.79064 28804 ft 514 kts 98°
2026-05-07 18:18 22.65288 53.86690 28809 ft 513 kts 99°
2026-05-07 18:19 22.64298 53.94363 28809 ft 513 kts 99°
2026-05-07 18:19 22.63306 54.02029 28808 ft 514 kts 99°
2026-05-07 18:20 22.62314 54.09659 28813 ft 514 kts 99°
2026-05-07 18:20 22.61314 54.17329 28811 ft 514 kts 99°
2026-05-07 18:21 22.60310 54.24999 28807 ft 514 kts 99°
2026-05-07 18:21 22.59310 54.32621 28811 ft 514 kts 99°
2026-05-07 18:22 22.58301 54.40290 28810 ft 514 kts 99°
2026-05-07 18:22 22.57291 54.47948 28810 ft 514 kts 99°
2026-05-07 18:23 22.56283 54.55563 28810 ft 513 kts 99°
2026-05-07 18:23 22.55269 54.63192 28813 ft 513 kts 99°
2026-05-07 18:24 22.54247 54.70854 28817 ft 513 kts 99°
2026-05-07 18:24 22.53222 54.78517 28812 ft 514 kts 99°
2026-05-07 18:25 22.52199 54.86121 28818 ft 514 kts 99°
2026-05-07 18:25 22.51166 54.93782 28811 ft 514 kts 99°
2026-05-07 18:26 22.50305 55.00152 28823 ft 513 kts 99°
2026-05-07 18:26 22.49095 55.09058 28824 ft 513 kts 99°
2026-05-07 18:27 22.48228 55.15420 28824 ft 513 kts 99°
2026-05-07 18:27 22.47190 55.23016 28827 ft 513 kts 99°
2026-05-07 18:28 22.46140 55.30676 28832 ft 513 kts 98°
2026-05-07 18:28 22.46124 55.38319 28838 ft 512 kts 81°
2026-05-07 18:29 22.48097 55.45706 28836 ft 511 kts 66°
2026-05-07 18:29 22.50861 55.52796 28838 ft 512 kts 66°
2026-05-07 18:30 22.53603 55.59918 28843 ft 512 kts 67°
2026-05-07 18:30 22.56284 55.67044 28841 ft 512 kts 67°
2026-05-07 18:31 22.58951 55.74202 28849 ft 512 kts 67°
2026-05-07 18:31 22.61593 55.81302 28847 ft 511 kts 67°
2026-05-07 18:31 22.62932 55.84898 28950 ft 514 kts 67°
2026-05-07 18:32 22.64269 55.88491 29165 ft 515 kts 67°
2026-05-07 18:32 22.65609 55.92095 29424 ft 515 kts 67°
2026-05-07 18:32 22.66933 55.95659 29610 ft 517 kts 67°
2026-05-07 18:32 22.68283 55.99294 29773 ft 519 kts 67°
2026-05-07 18:33 22.69636 56.02943 29949 ft 520 kts 67°
2026-05-07 18:33 22.70986 56.06588 30152 ft 520 kts 67°
2026-05-07 18:33 22.72316 56.10180 30407 ft 519 kts 67°
2026-05-07 18:33 22.73659 56.13811 30683 ft 517 kts 68°
2026-05-07 18:34 22.74999 56.17435 30919 ft 517 kts 68°
2026-05-07 18:34 22.76333 56.21046 31153 ft 516 kts 68°
2026-05-07 18:34 22.77652 56.24622 31372 ft 515 kts 68°
2026-05-07 18:34 22.78985 56.28235 31591 ft 515 kts 68°
2026-05-07 18:35 22.80312 56.31835 31828 ft 514 kts 68°
2026-05-07 18:35 22.81639 56.35439 32055 ft 513 kts 68°
2026-05-07 18:35 22.82852 56.39094 32259 ft 513 kts 73°
2026-05-07 18:35 22.83723 56.42798 32462 ft 513 kts 78°
2026-05-07 18:36 22.84426 56.46601 32688 ft 512 kts 79°
2026-05-07 18:36 22.85111 56.50403 32903 ft 511 kts 79°
2026-05-07 18:36 22.85787 56.54140 33125 ft 510 kts 79°
2026-05-07 18:36 22.86482 56.57929 33326 ft 510 kts 79°
2026-05-07 18:37 22.87186 56.61706 33513 ft 510 kts 79°
2026-05-07 18:37 22.87895 56.65474 33708 ft 510 kts 78°
2026-05-07 18:37 22.88607 56.69237 33906 ft 509 kts 78°
2026-05-07 18:37 22.89319 56.73004 34083 ft 508 kts 78°
2026-05-07 18:38 22.90020 56.76715 34273 ft 508 kts 79°
2026-05-07 18:38 22.90727 56.80465 34432 ft 507 kts 79°
2026-05-07 18:38 22.91434 56.84227 34611 ft 507 kts 79°
2026-05-07 18:38 22.92136 56.87970 34778 ft 506 kts 79°
2026-05-07 18:39 22.92840 56.91725 34842 ft 507 kts 79°
2026-05-07 18:39 22.94236 56.99194 34937 ft 507 kts 79°
2026-05-07 18:40 22.95633 57.06696 34947 ft 506 kts 79°
2026-05-07 18:40 22.97019 57.14152 34949 ft 505 kts 79°
2026-05-07 18:41 22.98405 57.21628 34963 ft 505 kts 79°
2026-05-07 18:41 22.99778 57.29109 34957 ft 505 kts 81°
2026-05-07 18:42 23.00401 57.36668 34968 ft 504 kts 89°
2026-05-07 18:42 23.00578 57.44287 34954 ft 505 kts 89°
2026-05-07 18:43 23.00777 57.51870 34950 ft 506 kts 89°
2026-05-07 18:43 23.01013 57.59522 34960 ft 506 kts 88°
2026-05-07 18:44 23.01253 57.67169 34940 ft 507 kts 88°
2026-05-07 18:44 23.01487 57.74796 34926 ft 507 kts 88°
2026-05-07 18:45 23.01717 57.82465 34912 ft 507 kts 89°
2026-05-07 18:45 23.01873 57.90136 34907 ft 507 kts 90°
2026-05-07 18:46 23.01852 57.97768 34903 ft 507 kts 91°
2026-05-07 18:46 23.01822 58.05450 34892 ft 507 kts 90°
2026-05-07 18:47 23.01817 58.13072 34892 ft 507 kts 90°
2026-05-07 18:47 23.01817 58.20728 34873 ft 507 kts 90°
2026-05-07 18:48 23.01812 58.28349 34873 ft 507 kts 90°
2026-05-07 18:48 23.01803 58.36021 34877 ft 507 kts 90°
2026-05-07 18:49 23.01912 58.43705 34879 ft 507 kts 88°
2026-05-07 18:49 23.02222 58.51329 34868 ft 508 kts 88°
2026-05-07 18:50 23.02523 58.58998 34853 ft 508 kts 88°
2026-05-07 18:50 23.02782 58.66623 34859 ft 508 kts 88°
2026-05-07 18:51 23.03027 58.74298 34833 ft 507 kts 88°
2026-05-07 18:51 23.03270 58.81936 34822 ft 507 kts 88°
2026-05-07 18:52 23.03512 58.89609 34816 ft 507 kts 88°
2026-05-07 18:52 23.03748 58.97214 34825 ft 506 kts 88°
2026-05-07 18:53 23.03979 59.04873 34829 ft 507 kts 88°
2026-05-07 18:53 23.04202 59.12532 34821 ft 507 kts 88°
2026-05-07 18:54 23.04420 59.20156 34803 ft 507 kts 88°
2026-05-07 18:54 23.04637 59.27814 34782 ft 507 kts 88°
2026-05-07 18:55 23.04849 59.35448 34785 ft 507 kts 88°
2026-05-07 18:55 23.05023 59.43120 34767 ft 507 kts 89°
2026-05-07 18:56 23.05132 59.50771 34755 ft 507 kts 89°
2026-05-07 18:56 23.05241 59.58457 34757 ft 507 kts 89°
2026-05-07 18:57 23.05356 59.66077 34755 ft 508 kts 89°
2026-05-07 18:57 23.05471 59.73791 34759 ft 508 kts 89°
2026-05-07 18:58 23.05580 59.81413 34759 ft 508 kts 89°
2026-05-07 18:58 23.05687 59.89096 34760 ft 508 kts 89°
2026-05-07 18:59 23.05781 59.96736 34765 ft 508 kts 89°
2026-05-07 18:59 23.05865 60.04408 34765 ft 507 kts 89°
2026-05-07 19:00 23.05945 60.12045 34767 ft 507 kts 89°
2026-05-07 19:00 23.06024 60.19722 34770 ft 507 kts 89°
2026-05-07 19:01 23.06099 60.27389 34772 ft 507 kts 89°
2026-05-07 19:01 23.06170 60.35024 34767 ft 507 kts 89°
2026-05-07 19:02 23.06238 60.42699 34768 ft 507 kts 89°
2026-05-07 19:02 23.06301 60.50342 34765 ft 507 kts 89°
2026-05-07 19:03 23.06362 60.58027 34771 ft 507 kts 89°
2026-05-07 19:03 23.06420 60.65700 34770 ft 508 kts 89°
2026-05-07 19:04 23.06481 60.73347 34771 ft 508 kts 89°
2026-05-07 19:04 23.06542 60.81016 34772 ft 508 kts 89°
2026-05-07 19:05 23.06598 60.88704 34774 ft 508 kts 89°
2026-05-07 19:05 23.06649 60.96344 34773 ft 508 kts 89°
2026-05-07 19:06 23.06696 61.04037 34770 ft 508 kts 90°
2026-05-07 19:06 23.06761 61.15546 34771 ft 508 kts 89°
2026-05-07 19:07 23.06799 61.23233 34771 ft 508 kts 89°
2026-05-07 19:07 23.06834 61.30895 34769 ft 508 kts 90°
2026-05-07 19:08 23.06865 61.38539 34773 ft 508 kts 89°
2026-05-07 19:08 23.06893 61.46252 34771 ft 508 kts 89°
2026-05-07 19:09 23.06922 61.53939 34771 ft 508 kts 89°
2026-05-07 19:09 23.06956 61.61586 34770 ft 508 kts 89°
2026-05-07 19:10 23.06986 61.69297 34771 ft 508 kts 89°
2026-05-07 19:10 23.07008 61.76931 34768 ft 508 kts 90°
2026-05-07 19:11 23.07012 61.84623 34767 ft 508 kts 90°
2026-05-07 19:11 23.07009 61.92271 34774 ft 508 kts 90°
2026-05-07 19:12 23.07005 61.99962 34772 ft 508 kts 90°
2026-05-07 19:12 23.07000 62.06360 34767 ft 508 kts 90°
2026-05-07 19:13 23.06991 62.14042 34766 ft 508 kts 90°
2026-05-07 19:13 23.06978 62.21690 34766 ft 508 kts 90°
2026-05-07 19:14 23.06961 62.29390 34765 ft 508 kts 90°
2026-05-07 19:14 23.06941 62.37024 34765 ft 508 kts 90°
2026-05-07 19:15 23.06916 62.44720 34767 ft 509 kts 90°
2026-05-07 19:15 23.06888 62.52366 34767 ft 509 kts 90°
2026-05-07 19:16 23.06857 62.60065 34768 ft 509 kts 90°
2026-05-07 19:16 23.06821 62.67759 34769 ft 509 kts 90°
2026-05-07 19:17 23.06782 62.75424 34769 ft 509 kts 90°
2026-05-07 19:17 23.06739 62.83135 34771 ft 510 kts 90°
2026-05-07 19:18 23.06693 62.90795 34767 ft 510 kts 90°
2026-05-07 19:18 23.06642 62.98499 34765 ft 510 kts 90°
2026-05-07 19:19 23.06588 63.06201 34768 ft 509 kts 90°
2026-05-07 19:19 23.06531 63.13873 34776 ft 509 kts 90°
2026-05-07 19:20 23.06469 63.21572 34773 ft 508 kts 90°
2026-05-07 19:20 23.06404 63.29212 34771 ft 508 kts 90°
2026-05-07 19:21 23.06336 63.36878 34774 ft 507 kts 90°
2026-05-07 19:21 23.06263 63.44545 34777 ft 507 kts 90°
2026-05-07 19:22 23.06187 63.52198 34780 ft 507 kts 90°
2026-05-07 19:22 23.06108 63.59812 34777 ft 506 kts 90°
2026-05-07 19:23 23.06025 63.67466 34778 ft 506 kts 90°
2026-05-07 19:23 23.05938 63.75116 34783 ft 506 kts 90°
2026-05-07 19:24 23.05848 63.82787 34780 ft 506 kts 90°
2026-05-07 19:24 23.05511 63.90409 34786 ft 507 kts 95°
2026-05-07 19:25 23.04717 63.97986 34780 ft 508 kts 96°
2026-05-07 19:25 23.03895 64.05629 34784 ft 508 kts 96°
2026-05-07 19:26 23.03101 64.13279 34781 ft 509 kts 95°
2026-05-07 19:26 23.02324 64.20891 34782 ft 510 kts 95°
2026-05-07 19:27 23.01537 64.28571 34784 ft 510 kts 95°
2026-05-07 19:27 23.00748 64.36213 34787 ft 511 kts 96°
2026-05-07 19:28 22.99955 64.43844 34783 ft 511 kts 96°
2026-05-07 19:28 22.99152 64.51540 34784 ft 511 kts 96°
2026-05-07 19:29 22.98352 64.59177 34784 ft 512 kts 96°
2026-05-07 19:29 22.97542 64.66866 34783 ft 512 kts 96°
2026-05-07 19:30 22.96734 64.74509 34782 ft 511 kts 96°
2026-05-07 19:30 22.95926 64.82193 34784 ft 511 kts 94°
2026-05-07 19:31 22.95741 64.89850 34795 ft 510 kts 88°
2026-05-07 19:31 22.95841 64.97567 34787 ft 510 kts 88°
2026-05-07 19:32 22.95925 65.05237 34785 ft 510 kts 88°
2026-05-07 19:32 22.95975 65.12953 34787 ft 510 kts 88°
2026-05-07 19:33 22.96008 65.20664 34788 ft 510 kts 88°
2026-05-07 19:33 22.96036 65.28328 34789 ft 510 kts 88°
2026-05-07 19:34 22.96063 65.36049 34787 ft 510 kts 88°
2026-05-07 19:34 22.96087 65.43720 34793 ft 510 kts 88°
2026-05-07 19:35 22.96108 65.51399 34793 ft 510 kts 88°
2026-05-07 19:35 22.96125 65.59114 34795 ft 510 kts 89°
2026-05-07 19:36 22.96138 65.66824 34795 ft 511 kts 89°
2026-05-07 19:36 22.96147 65.74532 34798 ft 511 kts 89°
2026-05-07 19:37 22.96152 65.82218 34800 ft 511 kts 89°
2026-05-07 19:37 22.96154 65.89908 34800 ft 511 kts 89°
2026-05-07 19:38 22.96152 65.97663 34803 ft 512 kts 89°
2026-05-07 19:38 22.96147 66.05348 34803 ft 512 kts 89°
2026-05-07 19:39 22.96137 66.13105 34806 ft 512 kts 89°
2026-05-07 19:39 22.96124 66.20796 34809 ft 513 kts 89°
2026-05-07 19:40 22.96107 66.28550 34807 ft 513 kts 89°
2026-05-07 19:40 22.96087 66.36269 34805 ft 513 kts 89°
2026-05-07 19:41 22.96062 66.44044 34806 ft 514 kts 89°
2026-05-07 19:41 22.96034 66.51771 34808 ft 514 kts 89°
2026-05-07 19:42 22.96002 66.59528 34807 ft 514 kts 89°
2026-05-07 19:42 22.95966 66.67314 34806 ft 514 kts 89°
2026-05-07 19:43 22.95927 66.75043 34808 ft 515 kts 89°
2026-05-07 19:43 22.95884 66.82817 34811 ft 515 kts 89°
2026-05-07 19:44 22.95837 66.90546 34819 ft 515 kts 89°
2026-05-07 19:44 22.95791 66.98321 34812 ft 515 kts 88°
2026-05-07 19:45 22.95803 67.06095 34803 ft 515 kts 88°
2026-05-07 19:45 22.95833 67.13821 34813 ft 514 kts 88°
2026-05-07 19:46 22.95852 67.21602 34811 ft 514 kts 88°
2026-05-07 19:46 22.95860 67.29338 34810 ft 514 kts 88°
2026-05-07 19:47 22.95864 67.37105 34811 ft 514 kts 88°
2026-05-07 19:47 22.95864 67.44819 34811 ft 513 kts 88°
2026-05-07 19:48 22.95860 67.52583 34813 ft 513 kts 88°
2026-05-07 19:48 22.95853 67.60298 34814 ft 514 kts 88°
2026-05-07 19:49 22.95842 67.68072 34812 ft 514 kts 88°
2026-05-07 19:49 22.95828 67.75852 34811 ft 515 kts 88°
2026-05-07 19:50 22.95810 67.83594 34809 ft 515 kts 88°
2026-05-07 19:50 22.95796 67.91351 34808 ft 515 kts 88°
2026-05-07 19:51 22.95807 67.99154 34808 ft 515 kts 88°
2026-05-07 19:51 22.95818 68.06897 34806 ft 515 kts 88°
2026-05-07 19:52 22.95820 68.14701 34811 ft 515 kts 88°
2026-05-07 19:52 22.95817 68.22451 34816 ft 516 kts 88°
2026-05-07 19:53 22.95810 68.30254 34807 ft 516 kts 88°
2026-05-07 19:53 22.95789 68.38019 34811 ft 517 kts 90°
2026-05-07 19:54 22.95415 68.45820 34815 ft 518 kts 92°
2026-05-07 19:54 22.94919 68.53632 34817 ft 518 kts 92°
2026-05-07 19:55 22.94436 68.61401 34811 ft 519 kts 92°
2026-05-07 19:55 22.93970 68.69234 34816 ft 519 kts 92°
2026-05-07 19:56 22.93513 68.77010 34808 ft 520 kts 92°
2026-05-07 19:56 22.93046 68.84854 34810 ft 520 kts 92°
2026-05-07 19:57 22.92577 68.92660 34804 ft 521 kts 92°
2026-05-07 19:57 22.92101 69.00501 34816 ft 520 kts 92°
2026-05-07 19:58 22.91619 69.08362 34810 ft 520 kts 92°
2026-05-07 19:58 22.91139 69.16150 34809 ft 519 kts 92°
2026-05-07 19:59 22.90652 69.23974 34806 ft 519 kts 92°
2026-05-07 19:59 22.90164 69.31758 34820 ft 520 kts 92°
2026-05-07 20:00 22.89669 69.39607 34823 ft 520 kts 92°
2026-05-07 20:00 22.89170 69.47435 34826 ft 521 kts 92°
2026-05-07 20:01 22.88670 69.55236 34820 ft 521 kts 92°
2026-05-07 20:01 22.88162 69.63102 34822 ft 522 kts 92°
2026-05-07 20:02 22.87736 69.69652 34820 ft 523 kts 92°
2026-05-07 20:02 22.87258 69.77493 34826 ft 523 kts 91°
2026-05-07 20:03 22.86810 69.85377 34825 ft 523 kts 91°
2026-05-07 20:03 22.86358 69.93241 34830 ft 524 kts 91°
2026-05-07 20:04 22.85892 70.01140 34831 ft 524 kts 91°
2026-05-07 20:04 22.85419 70.09060 34828 ft 525 kts 92°
2026-05-07 20:05 22.84946 70.16913 34835 ft 525 kts 92°
2026-05-07 20:05 22.84466 70.24835 34833 ft 525 kts 91°
2026-05-07 20:06 22.83985 70.32708 34839 ft 525 kts 91°
2026-05-07 20:06 22.83498 70.40613 34838 ft 525 kts 91°
2026-05-07 20:07 22.83009 70.48482 34828 ft 525 kts 92°
2026-05-07 20:07 22.82514 70.56388 34842 ft 524 kts 92°
2026-05-07 20:08 22.82018 70.64242 34842 ft 524 kts 92°
2026-05-07 20:08 22.81517 70.72127 34839 ft 524 kts 92°
2026-05-07 20:09 22.81029 70.80017 34840 ft 523 kts 90°
2026-05-07 20:10 22.81951 70.91675 34861 ft 518 kts 77°
2026-05-07 20:10 22.83182 70.99398 34852 ft 519 kts 77°
2026-05-07 20:11 22.84376 71.07080 34838 ft 519 kts 78°
2026-05-07 20:11 22.85540 71.14819 34835 ft 520 kts 78°
2026-05-07 20:12 22.86691 71.22576 34830 ft 520 kts 78°
2026-05-07 20:12 22.87833 71.30292 34826 ft 520 kts 78°
2026-05-07 20:13 22.88980 71.38056 34825 ft 520 kts 78°
2026-05-07 20:13 22.90119 71.45778 34821 ft 520 kts 78°
2026-05-07 20:14 22.91259 71.53544 34824 ft 520 kts 78°
2026-05-07 20:14 22.92395 71.61301 34822 ft 520 kts 78°
2026-05-07 20:15 22.93525 71.69047 34816 ft 520 kts 78°
2026-05-07 20:15 22.94655 71.76821 34814 ft 520 kts 78°
2026-05-07 20:16 22.95776 71.84562 34810 ft 520 kts 78°
2026-05-07 20:16 22.96891 71.92286 34817 ft 520 kts 78°
2026-05-07 20:17 22.98009 72.00058 34803 ft 521 kts 78°
2026-05-07 20:17 22.99125 72.07846 34803 ft 521 kts 78°
2026-05-07 20:18 23.00228 72.15576 34798 ft 521 kts 78°
2026-05-07 20:18 23.01340 72.23387 34796 ft 521 kts 78°
2026-05-07 20:19 23.02438 72.31134 34796 ft 522 kts 78°
2026-05-07 20:19 23.03541 72.38940 34782 ft 522 kts 78°
2026-05-07 20:20 23.04634 72.46708 34777 ft 522 kts 78°
2026-05-07 20:20 23.05730 72.54524 34775 ft 522 kts 78°
2026-05-07 20:21 23.06814 72.62328 34782 ft 523 kts 79°
2026-05-07 20:21 23.07400 72.70226 34780 ft 525 kts 84°
2026-05-07 20:22 23.07794 72.78111 34784 ft 526 kts 84°
2026-05-07 20:22 23.08200 72.86057 34782 ft 526 kts 84°
2026-05-07 20:23 23.08630 72.94003 34787 ft 526 kts 84°
2026-05-07 20:23 23.09068 73.01958 34789 ft 527 kts 84°
2026-05-07 20:24 23.09499 73.09872 34789 ft 528 kts 84°
2026-05-07 20:24 23.09927 73.17848 34792 ft 528 kts 84°
2026-05-07 20:25 23.10351 73.25829 34805 ft 529 kts 84°
2026-05-07 20:25 23.10768 73.33772 34801 ft 530 kts 84°
2026-05-07 20:26 23.11186 73.41784 34805 ft 530 kts 84°
2026-05-07 20:26 23.11597 73.49769 34803 ft 531 kts 84°
2026-05-07 20:27 23.12007 73.57789 34807 ft 531 kts 84°
2026-05-07 20:27 23.12413 73.65832 34826 ft 532 kts 84°
2026-05-07 20:28 23.12814 73.73822 34819 ft 532 kts 84°
2026-05-07 20:28 23.13212 73.81874 34821 ft 533 kts 84°
2026-05-07 20:29 23.13605 73.89882 34825 ft 533 kts 84°
2026-05-07 20:29 23.13996 73.97938 34834 ft 533 kts 84°
2026-05-07 20:30 23.14380 74.05941 34832 ft 533 kts 84°
2026-05-07 20:30 23.14763 74.14001 34838 ft 533 kts 84°
2026-05-07 20:31 23.15140 74.22015 34844 ft 533 kts 84°
2026-05-07 20:31 23.15515 74.30082 34842 ft 533 kts 84°
2026-05-07 20:32 23.15846 74.38090 34862 ft 533 kts 85°
2026-05-07 20:32 23.16008 74.46182 34849 ft 534 kts 86°
2026-05-07 20:33 23.16133 74.54226 34857 ft 534 kts 86°
2026-05-07 20:33 23.16277 74.62309 34854 ft 534 kts 86°
2026-05-07 20:34 23.16435 74.70391 34859 ft 534 kts 86°
2026-05-07 20:34 23.16591 74.78436 34869 ft 534 kts 86°
2026-05-07 20:35 23.16741 74.86516 34872 ft 534 kts 86°
2026-05-07 20:35 23.16886 74.94562 34867 ft 534 kts 86°
2026-05-07 20:36 23.17026 75.02641 34869 ft 534 kts 86°
2026-05-07 20:36 23.17163 75.10725 34873 ft 535 kts 86°
2026-05-07 20:37 23.17296 75.18827 34865 ft 535 kts 86°
2026-05-07 20:37 23.17425 75.26895 34875 ft 536 kts 86°
2026-05-07 20:38 23.17550 75.35014 34875 ft 536 kts 86°
2026-05-07 20:38 23.17670 75.43086 34883 ft 537 kts 86°
2026-05-07 20:39 23.17787 75.51220 34874 ft 537 kts 87°
2026-05-07 20:39 23.17900 75.59353 34881 ft 538 kts 87°
2026-05-07 20:40 23.18008 75.67461 34881 ft 538 kts 87°
2026-05-07 20:40 23.18113 75.75618 34875 ft 539 kts 87°
2026-05-07 20:41 23.18213 75.83725 34881 ft 539 kts 87°
2026-05-07 20:41 23.18309 75.91880 34881 ft 539 kts 87°
2026-05-07 20:42 23.18415 75.99998 34880 ft 538 kts 85°
2026-05-07 20:42 23.18962 76.08113 34886 ft 537 kts 82°
2026-05-07 20:43 23.19637 76.16211 34889 ft 537 kts 82°
2026-05-07 20:43 23.20288 76.24254 34881 ft 537 kts 82°
2026-05-07 20:44 23.20913 76.32356 34884 ft 537 kts 83°
2026-05-07 20:44 23.21521 76.40417 34870 ft 537 kts 83°
2026-05-07 20:45 23.22131 76.48532 34871 ft 537 kts 83°
2026-05-07 20:45 23.22739 76.56654 34871 ft 538 kts 83°
2026-05-07 20:46 23.23340 76.64732 34869 ft 538 kts 83°
2026-05-07 20:46 23.23937 76.72812 34861 ft 538 kts 83°
2026-05-07 20:47 23.24534 76.80942 34862 ft 538 kts 83°
2026-05-07 20:47 23.25126 76.89072 34867 ft 538 kts 83°
2026-05-07 20:48 23.25710 76.97156 34861 ft 539 kts 83°
2026-05-07 20:48 23.26294 77.05296 34879 ft 539 kts 83°
2026-05-07 20:49 23.26874 77.13422 34890 ft 539 kts 83°
2026-05-07 20:49 23.27447 77.21523 34908 ft 539 kts 83°
2026-05-07 20:50 23.27923 77.28293 34916 ft 539 kts 83°
2026-05-07 20:50 23.28287 77.36484 34913 ft 541 kts 90°
2026-05-07 20:51 23.27950 77.44624 34905 ft 542 kts 91°
2026-05-07 20:51 23.27546 77.52834 34888 ft 542 kts 91°
2026-05-07 20:52 23.27182 77.60990 34877 ft 542 kts 91°
2026-05-07 20:52 23.26839 77.69210 34847 ft 543 kts 91°
2026-05-07 20:53 23.26497 77.77433 34831 ft 543 kts 91°
2026-05-07 20:53 23.26150 77.85581 34842 ft 542 kts 91°
2026-05-07 20:54 23.25795 77.93784 34840 ft 541 kts 91°
2026-05-07 20:54 23.25436 78.01960 34840 ft 541 kts 91°
2026-05-07 20:55 23.25075 78.10105 34835 ft 541 kts 91°
2026-05-07 20:55 23.24708 78.18279 34832 ft 540 kts 91°
2026-05-07 20:56 23.24337 78.26454 34831 ft 540 kts 92°
2026-05-07 20:56 23.23964 78.34582 34834 ft 540 kts 92°
2026-05-07 20:57 23.23585 78.42738 34838 ft 540 kts 92°
2026-05-07 20:57 23.23201 78.50915 34836 ft 540 kts 92°
2026-05-07 20:58 23.22816 78.59041 34836 ft 541 kts 92°
2026-05-07 20:58 23.22423 78.67224 34837 ft 541 kts 92°
2026-05-07 20:59 23.22034 78.75380 34837 ft 542 kts 91°
2026-05-07 20:59 23.21864 78.83587 34832 ft 542 kts 89°
2026-05-07 21:00 23.21806 78.91742 34833 ft 542 kts 89°
2026-05-07 21:00 23.21712 78.99949 34835 ft 542 kts 90°
2026-05-07 21:01 23.21580 79.08182 34845 ft 543 kts 90°
2026-05-07 21:01 23.21438 79.16353 34825 ft 544 kts 90°
2026-05-07 21:02 23.21295 79.24578 34827 ft 544 kts 90°
2026-05-07 21:02 23.21149 79.32826 34828 ft 545 kts 90°
2026-05-07 21:03 23.20999 79.41033 34824 ft 545 kts 90°
2026-05-07 21:03 23.20845 79.49284 34830 ft 546 kts 90°
2026-05-07 21:04 23.20684 79.57544 34827 ft 546 kts 91°
2026-05-07 21:04 23.20382 79.65770 34827 ft 547 kts 92°
2026-05-07 21:05 23.19995 79.74042 34829 ft 547 kts 92°
2026-05-07 21:05 23.19629 79.82280 34836 ft 547 kts 92°
2026-05-07 21:06 23.19276 79.90565 34833 ft 548 kts 92°
2026-05-07 21:06 23.18921 79.98804 34834 ft 548 kts 92°
2026-05-07 21:07 23.18555 80.07103 34835 ft 549 kts 92°
2026-05-07 21:07 23.18143 80.15406 34836 ft 549 kts 93°
2026-05-07 21:08 23.17708 80.23659 34837 ft 550 kts 93°
2026-05-07 21:08 23.17271 80.31970 34844 ft 550 kts 93°
2026-05-07 21:09 23.16837 80.40259 34845 ft 551 kts 93°
2026-05-07 21:09 23.16397 80.48590 34855 ft 551 kts 93°
2026-05-07 21:10 23.15955 80.56875 34854 ft 551 kts 94°
2026-05-07 21:10 23.15506 80.65191 34858 ft 551 kts 94°
2026-05-07 21:11 23.15053 80.73522 34848 ft 550 kts 94°
2026-05-07 21:11 23.14374 80.85932 34858 ft 549 kts 94°
2026-05-07 21:12 23.13920 80.94212 34866 ft 549 kts 94°
2026-05-07 21:12 23.13463 81.02470 34863 ft 549 kts 94°
2026-05-07 21:13 23.13001 81.10742 34861 ft 548 kts 94°
2026-05-07 21:13 23.12532 81.19038 34863 ft 548 kts 94°
2026-05-07 21:14 23.12062 81.27264 34872 ft 548 kts 94°
2026-05-07 21:14 23.11586 81.35549 34870 ft 549 kts 95°
2026-05-07 21:15 23.11104 81.43849 34869 ft 549 kts 95°
2026-05-07 21:15 23.10621 81.52090 34865 ft 550 kts 95°
2026-05-07 21:16 23.10130 81.60401 34862 ft 550 kts 95°
2026-05-07 21:16 23.09634 81.68717 34861 ft 551 kts 95°
2026-05-07 21:17 23.09137 81.76974 34857 ft 551 kts 95°
2026-05-07 21:17 23.08631 81.85315 34853 ft 551 kts 95°
2026-05-07 21:18 23.08125 81.93577 34857 ft 551 kts 95°
2026-05-07 21:18 23.07612 82.01892 34857 ft 551 kts 95°
2026-05-07 21:19 23.07094 82.10214 34855 ft 551 kts 95°
2026-05-07 21:19 23.06584 82.18469 34854 ft 551 kts 95°
2026-05-07 21:20 23.06200 82.26806 34853 ft 551 kts 94°
2026-05-07 21:20 23.05874 82.35124 34856 ft 551 kts 94°
2026-05-07 21:21 23.05531 82.43402 34858 ft 550 kts 94°
2026-05-07 21:21 23.05162 82.51711 34850 ft 550 kts 94°
2026-05-07 21:22 23.04784 82.60023 34853 ft 550 kts 94°
2026-05-07 21:22 23.04405 82.68281 34853 ft 549 kts 94°
2026-05-07 21:23 23.04021 82.76564 34857 ft 549 kts 94°
2026-05-07 21:23 23.03634 82.84853 34861 ft 549 kts 95°
2026-05-07 21:24 23.03242 82.93154 34862 ft 549 kts 95°
2026-05-07 21:24 23.02849 83.01390 34872 ft 549 kts 95°
2026-05-07 21:25 23.02448 83.09693 34870 ft 549 kts 95°
2026-05-07 21:25 23.02044 83.17957 34893 ft 550 kts 95°
2026-05-07 21:26 23.01633 83.26286 34872 ft 550 kts 95°
2026-05-07 21:26 23.01220 83.34559 34904 ft 551 kts 95°
2026-05-07 21:27 23.00802 83.42853 34889 ft 552 kts 95°
2026-05-07 21:27 23.00378 83.51187 34921 ft 552 kts 95°
2026-05-07 21:28 22.99952 83.59474 34919 ft 552 kts 95°
2026-05-07 21:28 22.99519 83.67808 34938 ft 551 kts 95°
2026-05-07 21:29 22.99085 83.76083 34942 ft 552 kts 95°
2026-05-07 21:29 22.98643 83.84411 34891 ft 551 kts 95°
2026-05-07 21:30 22.98199 83.92716 34933 ft 549 kts 96°
2026-05-07 21:30 22.97754 84.00938 34940 ft 548 kts 96°
2026-05-07 21:31 22.97303 84.09212 34945 ft 548 kts 96°
2026-05-07 21:31 22.96821 84.17418 34944 ft 547 kts 96°
2026-05-07 21:32 22.96222 84.25652 34956 ft 546 kts 97°
2026-05-07 21:32 22.95602 84.33892 34949 ft 547 kts 97°
2026-05-07 21:33 22.94999 84.42082 34964 ft 547 kts 97°
2026-05-07 21:33 22.94397 84.50342 34956 ft 548 kts 97°
2026-05-07 21:34 22.93797 84.58538 34964 ft 548 kts 97°
2026-05-07 21:34 22.93184 84.66822 34952 ft 548 kts 97°
2026-05-07 21:35 22.92572 84.75033 34959 ft 548 kts 97°
2026-05-07 21:35 22.91953 84.83261 34964 ft 549 kts 97°
2026-05-07 21:36 22.91330 84.91510 34963 ft 549 kts 97°
2026-05-07 21:36 22.90807 84.98374 34965 ft 548 kts 97°
2026-05-07 21:37 22.90175 85.06641 34963 ft 548 kts 97°
2026-05-07 21:37 22.89540 85.14883 34963 ft 548 kts 98°
2026-05-07 21:38 22.88904 85.23088 34965 ft 548 kts 98°
2026-05-07 21:38 22.88261 85.31337 34963 ft 548 kts 98°
2026-05-07 21:39 22.87617 85.39547 34964 ft 548 kts 98°
2026-05-07 21:39 22.86967 85.47783 34962 ft 547 kts 98°
2026-05-07 21:40 22.86317 85.55960 34965 ft 547 kts 98°
2026-05-07 21:40 22.85657 85.64210 34947 ft 547 kts 98°
2026-05-07 21:41 22.84998 85.72402 34954 ft 547 kts 98°
2026-05-07 21:41 22.84331 85.80628 34936 ft 547 kts 98°
2026-05-07 21:42 22.83661 85.88852 34939 ft 547 kts 98°
2026-05-07 21:42 22.82986 85.97076 34929 ft 547 kts 98°
2026-05-07 21:43 22.82311 86.05252 34938 ft 547 kts 98°
2026-05-07 21:43 22.81631 86.13437 34930 ft 547 kts 98°
2026-05-07 21:44 22.80991 86.21667 34934 ft 547 kts 97°
2026-05-07 21:44 22.80562 86.29900 34938 ft 547 kts 96°
2026-05-07 21:45 22.80174 86.38157 34928 ft 547 kts 96°
2026-05-07 21:45 22.79754 86.46347 34917 ft 547 kts 96°
2026-05-07 21:46 22.79304 86.54576 34929 ft 547 kts 96°
2026-05-07 21:46 22.78844 86.62817 34920 ft 546 kts 96°
2026-05-07 21:47 22.78383 86.71040 34920 ft 546 kts 96°
2026-05-07 21:47 22.77923 86.79204 34920 ft 546 kts 96°
2026-05-07 21:48 22.77457 86.87417 34913 ft 545 kts 96°
2026-05-07 21:48 22.76986 86.95637 34900 ft 545 kts 97°
2026-05-07 21:49 22.76514 87.03799 34909 ft 545 kts 97°
2026-05-07 21:49 22.76034 87.12022 34902 ft 545 kts 97°
2026-05-07 21:50 22.75555 87.20170 34893 ft 544 kts 96°
2026-05-07 21:50 22.75067 87.28378 34896 ft 544 kts 97°
2026-05-07 21:51 22.74581 87.36507 34892 ft 542 kts 97°
2026-05-07 21:51 22.74087 87.44689 34896 ft 541 kts 97°
2026-05-07 21:52 22.73593 87.52796 34898 ft 541 kts 97°
2026-05-07 21:52 22.73092 87.60938 34894 ft 540 kts 97°
2026-05-07 21:53 22.72591 87.69036 34893 ft 540 kts 97°
2026-05-07 21:53 22.72083 87.77167 34890 ft 540 kts 97°
2026-05-07 21:54 22.71575 87.85234 34891 ft 540 kts 97°
2026-05-07 21:54 22.71060 87.93357 34891 ft 540 kts 97°
2026-05-07 21:55 22.70541 88.01456 34891 ft 540 kts 97°
2026-05-07 21:55 22.70016 88.09600 34881 ft 541 kts 97°
2026-05-07 21:56 22.69490 88.17698 34869 ft 541 kts 97°
2026-05-07 21:56 22.68957 88.25844 34865 ft 541 kts 97°
2026-05-07 21:57 22.68423 88.33938 34858 ft 541 kts 97°
2026-05-07 21:57 22.68311 88.42107 34847 ft 546 kts 83°
2026-05-07 21:58 22.70439 88.49966 34857 ft 548 kts 64°
2026-05-07 21:58 22.74353 88.57056 34865 ft 548 kts 56°
2026-05-07 21:59 22.78364 88.63955 34667 ft 537 kts 57°
2026-05-07 21:59 22.80320 88.67405 34199 ft 534 kts 58°
2026-05-07 21:59 22.82241 88.70845 33779 ft 530 kts 58°
2026-05-07 22:00 22.84139 88.74269 33289 ft 527 kts 58°
2026-05-07 22:00 22.86016 88.77661 32848 ft 522 kts 58°
2026-05-07 22:00 22.87861 88.80993 32420 ft 518 kts 58°
2026-05-07 22:00 22.89719 88.84343 32003 ft 514 kts 59°
2026-05-07 22:01 22.91539 88.87623 31591 ft 510 kts 59°
2026-05-07 22:01 22.93366 88.90908 31169 ft 506 kts 58°
2026-05-07 22:01 22.95248 88.94133 30760 ft 503 kts 57°
2026-05-07 22:01 22.97180 88.97316 30356 ft 500 kts 56°
2026-05-07 22:02 22.99111 89.00453 29922 ft 498 kts 56°
2026-05-07 22:02 23.01007 89.03534 29440 ft 495 kts 56°
2026-05-07 22:02 23.02906 89.06639 28992 ft 491 kts 56°
2026-05-07 22:02 23.04776 89.09719 28564 ft 486 kts 56°
2026-05-07 22:03 23.06632 89.12791 28137 ft 482 kts 56°
2026-05-07 22:03 23.08460 89.15828 27710 ft 478 kts 56°
2026-05-07 22:03 23.10276 89.18848 27292 ft 475 kts 56°
2026-05-07 22:03 23.12054 89.21807 26894 ft 471 kts 56°
2026-05-07 22:04 23.13844 89.24787 26471 ft 468 kts 56°
2026-05-07 22:04 23.15618 89.27741 26060 ft 465 kts 56°
2026-05-07 22:04 23.17385 89.30683 25640 ft 462 kts 56°
2026-05-07 22:04 23.19145 89.33616 25224 ft 460 kts 56°
2026-05-07 22:05 23.20869 89.36489 24808 ft 458 kts 56°
2026-05-07 22:05 23.22607 89.39390 24389 ft 456 kts 55°
2026-05-07 22:05 23.24342 89.42285 23969 ft 454 kts 55°
2026-05-07 22:05 23.26065 89.45162 23534 ft 452 kts 55°
2026-05-07 22:06 23.27762 89.47998 23064 ft 450 kts 55°
2026-05-07 22:06 23.29468 89.50850 22617 ft 447 kts 55°
2026-05-07 22:06 23.31160 89.53681 22181 ft 444 kts 55°
2026-05-07 22:06 23.32834 89.56484 21753 ft 440 kts 55°
2026-05-07 22:07 23.34499 89.59271 21339 ft 437 kts 55°
2026-05-07 22:07 23.36151 89.62038 20922 ft 433 kts 55°
2026-05-07 22:07 23.37810 89.64718 20495 ft 429 kts 50°
2026-05-07 22:07 23.39904 89.66987 20071 ft 421 kts 35°
2026-05-07 22:08 23.42204 89.68930 19664 ft 417 kts 34°
2026-05-07 22:08 23.44502 89.70872 19248 ft 415 kts 34°
2026-05-07 22:08 23.46725 89.72820 18809 ft 414 kts 36°
2026-05-07 22:08 23.48951 89.74823 18377 ft 412 kts 36°
2026-05-07 22:09 23.51149 89.76831 17915 ft 410 kts 39°
2026-05-07 22:09 23.52976 89.79156 17411 ft 406 kts 57°
2026-05-07 22:09 23.54349 89.81825 17036 ft 401 kts 59°
2026-05-07 22:09 23.55708 89.84476 16612 ft 398 kts 59°
2026-05-07 22:10 23.57068 89.87067 16207 ft 395 kts 58°
2026-05-07 22:10 23.58448 89.89654 15803 ft 393 kts 58°
2026-05-07 22:10 23.59828 89.92219 15386 ft 390 kts 58°
2026-05-07 22:10 23.61202 89.94766 14976 ft 388 kts 58°
2026-05-07 22:11 23.62569 89.97299 14570 ft 385 kts 58°
2026-05-07 22:11 23.63913 89.99786 14172 ft 383 kts 57°
2026-05-07 22:11 23.65334 90.02230 13748 ft 378 kts 52°
2026-05-07 22:11 23.67122 90.04284 13432 ft 368 kts 36°
2026-05-07 22:12 23.69155 90.05910 13222 ft 357 kts 31°
2026-05-07 22:12 23.71203 90.07398 13034 ft 348 kts 30°
2026-05-07 22:12 23.73213 90.08830 12780 ft 342 kts 30°
2026-05-07 22:12 23.75182 90.10229 12400 ft 341 kts 30°
2026-05-07 22:13 23.77172 90.11637 11934 ft 342 kts 30°
2026-05-07 22:13 23.79171 90.13046 11551 ft 341 kts 30°
2026-05-07 22:13 23.81155 90.14442 11244 ft 337 kts 30°
2026-05-07 22:13 23.83117 90.15822 10919 ft 334 kts 30°
2026-05-07 22:14 23.85073 90.17197 10569 ft 332 kts 30°
2026-05-07 22:14 23.86974 90.18535 10293 ft 316 kts 30°
2026-05-07 22:14 23.88729 90.19780 10050 ft 295 kts 30°
2026-05-07 22:14 23.90436 90.20999 9537 ft 284 kts 30°
2026-05-07 22:15 23.92045 90.22148 9037 ft 274 kts 30°
2026-05-07 22:15 23.93616 90.23266 8488 ft 266 kts 30°
2026-05-07 22:15 23.95154 90.24350 7812 ft 260 kts 30°
2026-05-07 22:15 23.96677 90.25405 7096 ft 258 kts 30°
2026-05-07 22:16 23.98174 90.26484 6388 ft 256 kts 39°
2026-05-07 22:16 23.99175 90.28039 5641 ft 255 kts 71°
2026-05-07 22:16 23.99298 90.29914 4898 ft 243 kts 103°
2026-05-07 22:16 23.98541 90.31473 4171 ft 228 kts 137°
2026-05-07 22:17 23.97198 90.32236 3518 ft 213 kts 172°
2026-05-07 22:17 23.95780 90.32221 2996 ft 200 kts 178°
2026-05-07 22:17 23.94420 90.32520 2372 ft 194 kts 163°
2026-05-07 22:17 23.93201 90.33018 1881 ft 185 kts 154°
2026-05-07 22:18 23.92107 90.33684 1594 ft 171 kts 150°
2026-05-07 22:18 23.90246 90.35058 1199 ft 154 kts 144°
2026-05-07 22:18 23.89384 90.35746 983 ft 153 kts 144°
2026-05-07 22:19 23.88520 90.36437 794 ft 154 kts 144°
2026-05-07 22:19 23.87650 90.37131 593 ft 155 kts 144°
2026-05-07 22:19 23.86781 90.37832 387 ft 155 kts 143°
2026-05-07 22:19 23.85914 90.38534 168 ft 155 kts 145°
2026-05-07 22:20 23.85043 90.39221 42 ft 149 kts 145°
2026-05-07 22:20 23.84298 90.39806 41 ft 108 kts 143°
2026-05-07 22:20 23.83913 90.40114 43 ft 26 kts 142°
2026-05-07 22:20 23.83798 90.40244 44 ft 18 kts 126°
2026-05-07 22:21 23.83744 90.40348 42 ft 16 kts 116°
2026-05-07 22:21 23.83703 90.40459 41 ft 16 kts 104°
2026-05-07 22:21 23.83703 90.40575 41 ft 16 kts 78°
2026-05-07 22:21 23.83746 90.40683 41 ft 16 kts 55°
2026-05-07 22:22 23.83805 90.40770 41 ft 13 kts 53°
2026-05-07 22:22 23.83860 90.40810 41 ft 10 kts 348°
2026-05-07 22:22 23.83920 90.40774 41 ft 10 kts 327°
2026-05-07 22:22 23.83989 90.40722 41 ft 15 kts 325°
2026-05-07 22:23 23.84086 90.40646 41 ft 20 kts 323°
2026-05-07 22:23 23.84202 90.40552 41 ft 21 kts 324°
2026-05-07 22:23 23.84318 90.40459 41 ft 21 kts 324°
2026-05-07 22:23 23.84432 90.40369 41 ft 19 kts 323°
2026-05-07 22:24 23.84498 90.40314 41 ft 17 kts 324°
2026-05-07 22:24 23.84600 90.40237 39 ft 10 kts 333°
2026-05-07 22:24 23.84661 90.40268 41 ft 10 kts 52°
2026-05-07 22:24 23.84686 90.40307 41 ft 9 kts 57°
2026-05-07 22:25 23.84673 90.40369 41 ft 10 kts 146°
2026-05-07 22:25 23.84617 90.40410 41 ft 10 kts 145°
2026-05-07 22:25 23.84570 90.40445 41 ft 7 kts 146°
2026-05-07 22:25 23.84537 90.40482 41 ft 7 kts 106°
2026-05-07 22:26 23.84552 90.40520 41 ft 3 kts 56°
2026-05-07 22:26 23.84562 90.40536 41 ft 1 kts 53°
2026-05-07 22:26 23.84565 90.40540 41 ft 1 kts 54°
2026-05-07 22:26 23.84569 90.40547 41 ft 1 kts 54°
2026-05-07 22:27 23.84571 90.40549 41 ft 0 kts 54°